Вернуться в каталог

FENGYUN 1C DEB

АктивенPO
NORAD 30885·DEBRIS·🇨🇳 China

Запущен May 10, 1999 с Taiyuan Satellite Launch Center

Loading…

Ближайшие Пролёты (ближайшие 24 часа)

TLE

СвежийSource: Space-Track

Эпоха: Sep 13, 2026, 14:08 UTC

1 30885U 99025AXX 26256.58925823  .00004813  00000-0  11502-2 0  9999
2 30885  99.0119 122.2194 0051092 109.3790 280.7211 14.53341455  9388

Отслеживайте FENGYUN 1C DEB в реальном времени с AllMySat

Download on the App Store